Time,TemperatureF,DewpointF,PressureIn,WindDirection,WindDirectionDegrees,WindSpeedMPH,WindSpeedGustMPH,Humidity,HourlyPrecipIn,Conditions,Clouds,dailyrainin,SoftwareType,DateUTC
2015-04-21 00:00:00,52.7,36.1,29.32,SE,138,0.0,0.0,53,0.00,,---,0.00,VWS V15.00,2015-04-21 07:00:00,
2015-04-21 00:05:00,52.5,35.9,29.32,SE,137,0.0,0.0,53,0.00,,---,0.00,VWS V15.00,2015-04-21 07:05:00,
2015-04-21 00:10:00,52.5,35.9,29.32,SE,137,0.0,0.0,53,0.00,,---,0.00,VWS V15.00,2015-04-21 07:10:00,
2015-04-21 00:15:00,52.3,35.7,29.32,SE,138,0.0,0.0,53,0.00,,---,0.00,VWS V15.00,2015-04-21 07:15:00,
2015-04-21 00:20:00,52.2,35.6,29.32,SE,138,0.0,0.0,53,0.00,,---,0.00,VWS V15.00,2015-04-21 07:20:00,
2015-04-21 00:25:00,51.8,35.7,29.32,SE,138,0.0,0.0,54,0.00,,---,0.00,VWS V15.00,2015-04-21 07:25:00,
2015-04-21 00:30:00,51.6,35.5,29.32,SE,138,0.0,0.0,54,0.00,,---,0.00,VWS V15.00,2015-04-21 07:30:00,
2015-04-21 00:35:00,51.6,35.5,29.32,SE,137,0.0,0.0,54,0.00,,---,0.00,VWS V15.00,2015-04-21 07:35:00,
2015-04-21 00:40:00,51.4,35.8,29.32,SE,137,0.0,0.0,55,0.00,,---,0.00,VWS V15.00,2015-04-21 07:40:00,
2015-04-21 00:45:00,51.4,35.8,29.32,SE,138,0.0,0.0,55,0.00,,---,0.00,VWS V15.00,2015-04-21 07:45:00,
2015-04-21 00:50:00,51.1,35.5,29.32,SE,138,0.0,0.0,55,0.00,,---,0.00,VWS V15.00,2015-04-21 07:50:00,
2015-04-21 00:55:00,51.1,35.5,29.32,SE,137,0.0,0.0,55,0.00,,---,0.00,VWS V15.00,2015-04-21 07:55:00,
2015-04-21 01:00:00,50.9,35.8,29.32,SE,138,0.0,0.0,56,0.00,,---,0.00,VWS V15.00,2015-04-21 08:00:00,
2015-04-21 01:05:00,50.7,35.6,29.32,SE,138,0.0,0.0,56,0.00,,---,0.00,VWS V15.00,2015-04-21 08:05:00,
2015-04-21 01:10:00,50.5,35.4,29.32,SE,138,0.0,0.0,56,0.00,,---,0.00,VWS V15.00,2015-04-21 08:10:00,
2015-04-21 01:15:00,50.4,35.7,29.32,SE,138,0.0,0.0,57,0.00,,---,0.00,VWS V15.00,2015-04-21 08:15:00,
2015-04-21 01:20:00,50.2,35.5,29.32,SE,138,0.0,0.0,57,0.00,,---,0.00,VWS V15.00,2015-04-21 08:20:00,
2015-04-21 01:25:00,50.2,36.0,29.32,SE,138,0.0,0.0,58,0.00,,---,0.00,VWS V15.00,2015-04-21 08:25:00,
2015-04-21 01:30:00,50.0,35.8,29.32,SE,137,0.0,0.0,58,0.00,,---,0.00,VWS V15.00,2015-04-21 08:30:00,
2015-04-21 01:35:00,49.8,35.7,29.32,SE,138,0.0,0.0,58,0.00,,---,0.00,VWS V15.00,2015-04-21 08:35:00,
2015-04-21 01:40:00,49.6,35.5,29.32,SE,138,0.0,0.0,58,0.00,,---,0.00,VWS V15.00,2015-04-21 08:40:00,
2015-04-21 01:45:00,49.5,35.7,29.32,SE,138,0.0,0.0,59,0.00,,---,0.00,VWS V15.00,2015-04-21 08:45:00,
2015-04-21 01:50:00,49.3,35.6,29.32,SE,137,0.0,0.0,59,0.00,,---,0.00,VWS V15.00,2015-04-21 08:50:00,
2015-04-21 01:55:00,49.1,35.4,29.32,SE,138,0.0,0.0,59,0.00,,---,0.00,VWS V15.00,2015-04-21 08:55:00,
2015-04-21 02:00:00,48.9,35.7,29.32,SE,138,0.0,0.0,60,0.00,,---,0.00,VWS V15.00,2015-04-21 09:00:00,
2015-04-21 02:05:00,48.9,35.7,29.32,SE,138,0.0,0.0,60,0.00,,---,0.00,VWS V15.00,2015-04-21 09:05:00,
2015-04-21 02:10:00,48.7,35.5,29.32,SE,137,0.0,0.0,60,0.00,,---,0.00,VWS V15.00,2015-04-21 09:10:00,
2015-04-21 02:15:00,48.7,35.9,29.32,SE,138,0.0,0.0,61,0.00,,---,0.00,VWS V15.00,2015-04-21 09:15:00,
2015-04-21 02:20:00,48.7,35.9,29.32,SE,137,0.0,0.0,61,0.00,,---,0.00,VWS V15.00,2015-04-21 09:20:00,
2015-04-21 02:25:00,48.6,35.7,29.32,SE,138,0.0,0.0,61,0.00,,---,0.00,VWS V15.00,2015-04-21 09:25:00,
2015-04-21 02:30:00,48.6,36.2,29.32,SE,138,0.0,0.0,62,0.00,,---,0.00,VWS V15.00,2015-04-21 09:30:00,
2015-04-21 02:35:00,48.4,36.0,29.32,SE,138,0.0,0.0,62,0.00,,---,0.00,VWS V15.00,2015-04-21 09:35:00,
2015-04-21 02:40:00,48.4,36.0,29.32,SE,137,0.0,0.0,62,0.00,,---,0.00,VWS V15.00,2015-04-21 09:40:00,
2015-04-21 02:45:00,48.4,36.0,29.32,SE,137,0.0,0.0,62,0.00,,---,0.00,VWS V15.00,2015-04-21 09:45:00,
2015-04-21 02:55:00,48.0,36.0,29.35,SE,137,0.0,0.0,63,0.00,,---,0.00,VWS V15.00,2015-04-21 09:55:00,
2015-04-21 03:00:00,47.8,36.3,29.35,SE,138,0.0,0.0,64,0.00,,---,0.00,VWS V15.00,2015-04-21 10:00:00,
2015-04-21 03:05:00,47.8,36.3,29.35,SE,138,0.0,0.0,64,0.00,,---,0.00,VWS V15.00,2015-04-21 10:05:00,
2015-04-21 03:10:00,47.8,36.3,29.35,SE,137,0.0,0.0,64,0.00,,---,0.00,VWS V15.00,2015-04-21 10:10:00,
2015-04-21 03:15:00,47.7,36.5,29.35,SE,137,0.0,0.0,65,0.00,,---,0.00,VWS V15.00,2015-04-21 10:15:00,
2015-04-21 03:20:00,47.7,36.5,29.35,SE,138,0.0,0.0,65,0.00,,---,0.00,VWS V15.00,2015-04-21 10:20:00,
2015-04-21 03:25:00,47.5,36.7,29.35,SE,138,0.0,0.0,66,0.00,,---,0.00,VWS V15.00,2015-04-21 10:25:00,
2015-04-21 03:30:00,47.5,36.7,29.35,SE,138,0.0,0.0,66,0.00,,---,0.00,VWS V15.00,2015-04-21 10:30:00,
2015-04-21 03:35:00,47.5,37.1,29.35,SE,138,0.0,0.0,67,0.00,,---,0.00,VWS V15.00,2015-04-21 10:35:00,
2015-04-21 03:40:00,47.5,37.1,29.32,SE,138,0.0,0.0,67,0.00,,---,0.00,VWS V15.00,2015-04-21 10:40:00,
2015-04-21 03:45:00,47.3,36.9,29.32,SE,138,0.0,0.0,67,0.00,,---,0.00,VWS V15.00,2015-04-21 10:45:00,
2015-04-21 03:50:00,47.3,36.9,29.32,SE,137,0.0,0.0,67,0.00,,---,0.00,VWS V15.00,2015-04-21 10:50:00,
2015-04-21 03:55:00,47.3,37.3,29.32,SE,138,0.0,0.0,68,0.00,,---,0.00,VWS V15.00,2015-04-21 10:55:00,
2015-04-21 04:00:00,47.3,37.3,29.32,SE,138,0.0,0.0,68,0.00,,---,0.00,VWS V15.00,2015-04-21 11:00:00,
2015-04-21 04:05:00,47.3,37.3,29.32,SE,138,0.0,0.0,68,0.00,,---,0.00,VWS V15.00,2015-04-21 11:05:00,
2015-04-21 04:10:00,47.3,37.3,29.35,SE,138,0.0,0.0,68,0.00,,---,0.00,VWS V15.00,2015-04-21 11:10:00,
2015-04-21 04:15:00,47.1,37.5,29.35,SE,138,0.0,0.0,69,0.00,,---,0.00,VWS V15.00,2015-04-21 11:15:00,
2015-04-21 04:20:00,47.1,37.5,29.35,SE,137,0.0,0.0,69,0.00,,---,0.00,VWS V15.00,2015-04-21 11:20:00,
2015-04-21 04:25:00,46.9,37.3,29.35,SE,138,0.0,0.0,69,0.00,,---,0.00,VWS V15.00,2015-04-21 11:25:00,
2015-04-21 04:30:00,46.9,37.3,29.35,SE,138,0.0,0.0,69,0.00,,---,0.00,VWS V15.00,2015-04-21 11:30:00,
2015-04-21 04:40:00,46.9,37.7,29.35,SE,138,0.0,0.0,70,0.00,,---,0.00,VWS V15.00,2015-04-21 11:40:00,
2015-04-21 04:45:00,46.9,38.0,29.35,SE,138,0.0,0.0,71,0.00,,---,0.00,VWS V15.00,2015-04-21 11:45:00,
2015-04-21 04:50:00,46.9,38.0,29.35,SE,137,0.0,0.0,71,0.00,,---,0.00,VWS V15.00,2015-04-21 11:50:00,
2015-04-21 04:55:00,46.8,37.9,29.35,SE,138,0.0,0.0,71,0.00,,---,0.00,VWS V15.00,2015-04-21 11:55:00,
2015-04-21 05:00:00,46.8,37.9,29.35,SE,138,0.0,0.0,71,0.00,,---,0.00,VWS V15.00,2015-04-21 12:00:00,
2015-04-21 05:05:00,46.6,37.7,29.35,SE,138,0.0,0.0,71,0.00,,---,0.00,VWS V15.00,2015-04-21 12:05:00,
2015-04-21 05:10:00,46.6,38.0,29.35,SE,137,0.0,0.0,72,0.00,,---,0.00,VWS V15.00,2015-04-21 12:10:00,
2015-04-21 05:15:00,46.6,38.0,29.35,SE,138,0.0,0.0,72,0.00,,---,0.00,VWS V15.00,2015-04-21 12:15:00,
2015-04-21 05:20:00,46.6,38.0,29.35,SE,138,0.0,0.0,72,0.00,,---,0.00,VWS V15.00,2015-04-21 12:20:00,
2015-04-21 05:25:00,46.2,37.7,29.35,SE,138,0.0,0.0,72,0.00,,---,0.00,VWS V15.00,2015-04-21 12:25:00,
2015-04-21 05:30:00,46.0,37.5,29.35,SE,138,0.0,0.0,72,0.00,,---,0.00,VWS V15.00,2015-04-21 12:30:00,
2015-04-21 05:35:00,46.0,37.5,29.35,SE,138,0.0,0.0,72,0.00,,---,0.00,VWS V15.00,2015-04-21 12:35:00,
2015-04-21 05:40:00,45.9,37.4,29.35,SE,138,0.0,0.0,72,0.00,,---,0.00,VWS V15.00,2015-04-21 12:40:00,
2015-04-21 05:45:00,45.7,37.2,29.35,SE,137,0.0,0.0,72,0.00,,---,0.00,VWS V15.00,2015-04-21 12:45:00,
2015-04-21 05:50:00,45.5,37.4,29.35,SE,138,0.0,0.0,73,0.00,,---,0.00,VWS V15.00,2015-04-21 12:50:00,
2015-04-21 05:55:00,45.5,37.4,29.35,SE,138,0.0,0.0,73,0.00,,---,0.00,VWS V15.00,2015-04-21 12:55:00,
2015-04-21 06:00:00,45.3,37.2,29.35,SE,138,0.0,0.0,73,0.00,,---,0.00,VWS V15.00,2015-04-21 13:00:00,
2015-04-21 06:05:00,45.3,37.2,29.35,SE,138,0.0,0.0,73,0.00,,---,0.00,VWS V15.00,2015-04-21 13:05:00,
2015-04-21 06:10:00,45.3,37.2,29.35,SE,138,0.0,0.0,73,0.00,,---,0.00,VWS V15.00,2015-04-21 13:10:00,
2015-04-21 06:15:00,45.3,37.2,29.35,SE,138,0.0,0.0,73,0.00,,---,0.00,VWS V15.00,2015-04-21 13:15:00,
2015-04-21 06:20:00,45.3,37.2,29.35,SE,138,0.0,0.0,73,0.00,,---,0.00,VWS V15.00,2015-04-21 13:20:00,
2015-04-21 06:25:00,45.3,37.5,29.35,SE,138,0.0,0.0,74,0.00,,---,0.00,VWS V15.00,2015-04-21 13:25:00,
2015-04-21 06:30:00,45.3,37.5,29.35,SE,137,0.0,0.0,74,0.00,,---,0.00,VWS V15.00,2015-04-21 13:30:00,
2015-04-21 06:35:00,45.3,37.5,29.35,SE,137,0.0,0.0,74,0.00,,---,0.00,VWS V15.00,2015-04-21 13:35:00,
2015-04-21 06:40:00,45.3,37.5,29.35,SE,137,0.0,0.0,74,0.00,,---,0.00,VWS V15.00,2015-04-21 13:40:00,
2015-04-21 06:45:00,45.5,37.7,29.35,SE,138,0.0,0.0,74,0.00,,---,0.00,VWS V15.00,2015-04-21 13:45:00,
2015-04-21 06:50:00,45.7,38.2,29.35,SE,138,0.0,0.0,75,0.00,,---,0.00,VWS V15.00,2015-04-21 13:50:00,
2015-04-21 06:55:00,45.7,38.2,29.35,SSE,162,0.0,0.0,75,0.00,,---,0.00,VWS V15.00,2015-04-21 13:55:00,
2015-04-21 07:00:00,45.9,38.4,29.35,SSE,162,0.0,0.0,75,0.00,,---,0.00,VWS V15.00,2015-04-21 14:00:00,
2015-04-21 07:05:00,46.0,38.6,29.35,SSE,162,0.0,0.0,75,0.00,,---,0.00,VWS V15.00,2015-04-21 14:05:00,
2015-04-21 07:10:00,46.0,38.6,29.35,SSE,162,0.0,0.0,75,0.00,,---,0.00,VWS V15.00,2015-04-21 14:10:00,
2015-04-21 07:15:00,46.2,38.8,29.35,SSE,162,0.0,0.0,75,0.00,,---,0.00,VWS V15.00,2015-04-21 14:15:00,
2015-04-21 07:20:00,46.2,38.8,29.35,SSE,162,0.0,0.0,75,0.00,,---,0.00,VWS V15.00,2015-04-21 14:20:00,
2015-04-21 07:25:00,46.2,38.8,29.38,SSE,162,0.0,0.0,75,0.00,,---,0.00,VWS V15.00,2015-04-21 14:25:00,
2015-04-21 07:30:00,46.4,38.9,29.38,SSE,162,0.0,0.0,75,0.00,,---,0.00,VWS V15.00,2015-04-21 14:30:00,
2015-04-21 07:35:00,46.6,39.1,29.38,SSE,162,0.0,0.0,75,0.00,,---,0.00,VWS V15.00,2015-04-21 14:35:00,
2015-04-21 07:40:00,46.8,39.3,29.38,SSE,162,0.0,0.0,75,0.00,,---,0.00,VWS V15.00,2015-04-21 14:40:00,
2015-04-21 07:45:00,47.1,40.0,29.38,SSE,162,0.0,0.0,76,0.00,,---,0.00,VWS V15.00,2015-04-21 14:45:00,
2015-04-21 07:50:00,47.3,40.1,29.38,SSE,162,0.0,0.0,76,0.00,,---,0.00,VWS V15.00,2015-04-21 14:50:00,
2015-04-21 07:55:00,47.7,40.8,29.38,SSE,162,0.0,0.0,77,0.00,,---,0.00,VWS V15.00,2015-04-21 14:55:00,
2015-04-21 08:00:00,48.2,41.7,29.38,SSE,162,0.0,0.0,78,0.00,,---,0.00,VWS V15.00,2015-04-21 15:00:00,
2015-04-21 08:05:00,48.7,42.9,29.38,SSE,162,0.0,0.0,80,0.00,,---,0.00,VWS V15.00,2015-04-21 15:05:00,
2015-04-21 08:10:00,49.1,43.5,29.38,ENE,75,0.0,2.7,81,0.00,,---,0.00,VWS V15.00,2015-04-21 15:10:00,
2015-04-21 08:15:00,49.5,43.9,29.38,ENE,75,0.0,0.0,81,0.00,,---,0.00,VWS V15.00,2015-04-21 15:15:00,
2015-04-21 08:20:00,49.8,44.2,29.38,ENE,75,0.0,0.0,81,0.00,,---,0.00,VWS V15.00,2015-04-21 15:20:00,
2015-04-21 08:25:00,50.2,43.9,29.38,ENE,75,0.0,2.2,79,0.00,,---,0.00,VWS V15.00,2015-04-21 15:25:00,
2015-04-21 08:30:00,50.4,43.8,29.38,ENE,75,0.0,0.0,78,0.00,,---,0.00,VWS V15.00,2015-04-21 15:30:00,
2015-04-21 08:35:00,50.7,43.1,29.38,ENE,75,0.0,0.0,75,0.00,,---,0.00,VWS V15.00,2015-04-21 15:35:00,
2015-04-21 08:40:00,51.1,43.4,29.38,ENE,75,0.0,0.0,75,0.00,,---,0.00,VWS V15.00,2015-04-21 15:40:00,
2015-04-21 08:44:00,51.4,43.4,29.38,ENE,75,0.0,2.7,74,0.00,,---,0.00,VWS V15.00,2015-04-21 15:44:00,
2015-04-21 08:49:00,51.8,42.3,29.38,SE,141,0.0,0.0,70,0.00,,---,0.00,VWS V15.00,2015-04-21 15:49:00,
2015-04-21 08:54:00,52.0,41.8,29.38,SSW,193,0.0,3.6,68,0.00,,---,0.00,VWS V15.00,2015-04-21 15:54:00,
2015-04-21 08:59:00,52.5,42.3,29.38,ESE,116,0.0,0.0,68,0.00,,---,0.00,VWS V15.00,2015-04-21 15:59:00,
2015-04-21 09:04:00,52.9,42.2,29.38,South,180,0.0,3.1,67,0.00,,---,0.00,VWS V15.00,2015-04-21 16:04:00,
2015-04-21 09:09:00,53.4,42.4,29.38,South,180,0.0,0.0,66,0.00,,---,0.00,VWS V15.00,2015-04-21 16:09:00,
2015-04-21 09:14:00,53.8,41.5,29.38,East,93,0.0,2.7,63,0.00,,---,0.00,VWS V15.00,2015-04-21 16:14:00,
2015-04-21 09:19:00,54.3,41.6,29.38,East,95,3.1,3.1,62,0.00,,---,0.00,VWS V15.00,2015-04-21 16:19:00,
2015-04-21 09:24:00,54.7,41.1,29.38,SSE,152,0.0,0.0,60,0.00,,---,0.00,VWS V15.00,2015-04-21 16:24:00,
2015-04-21 09:29:00,55.4,40.4,29.38,South,169,0.0,0.0,57,0.00,,---,0.00,VWS V15.00,2015-04-21 16:29:00,
2015-04-21 09:34:00,55.8,40.8,29.38,ENE,78,3.1,3.1,57,0.00,,---,0.00,VWS V15.00,2015-04-21 16:34:00,
2015-04-21 09:39:00,55.9,39.5,29.41,East,88,2.7,3.6,54,0.00,,---,0.00,VWS V15.00,2015-04-21 16:39:00,
2015-04-21 09:44:00,56.1,39.7,29.41,East,92,0.0,0.0,54,0.00,,---,0.00,VWS V15.00,2015-04-21 16:44:00,
2015-04-21 09:49:00,56.5,39.6,29.41,SSE,159,2.7,3.6,53,0.00,,---,0.00,VWS V15.00,2015-04-21 16:49:00,
2015-04-21 09:54:00,57.0,39.6,29.41,SSW,204,0.0,0.0,52,0.00,,---,0.00,VWS V15.00,2015-04-21 16:54:00,
2015-04-21 09:59:00,57.2,39.2,29.41,SW,216,3.6,3.6,51,0.00,,---,0.00,VWS V15.00,2015-04-21 16:59:00,
2015-04-21 10:04:00,57.4,39.4,29.41,SW,222,0.0,2.2,51,0.00,,---,0.00,VWS V15.00,2015-04-21 17:04:00,
2015-04-21 10:09:00,57.6,38.6,29.41,SW,221,0.0,0.0,49,0.00,,---,0.00,VWS V15.00,2015-04-21 17:09:00,
2015-04-21 10:14:00,57.9,38.9,29.41,WSW,245,0.0,0.0,49,0.00,,---,0.00,VWS V15.00,2015-04-21 17:14:00,
2015-04-21 10:16:00,57.9,38.9,29.41,WSW,245,0.0,0.0,49,0.00,,---,0.00,VWS V15.00,2015-04-21 17:16:00,
2015-04-21 10:17:00,58.1,39.1,29.41,WSW,244,0.0,0.0,49,0.00,,---,0.00,VWS V15.00,2015-04-21 17:17:00,
2015-04-21 10:22:00,58.1,39.1,29.41,SSE,165,2.7,2.7,49,0.00,,---,0.00,VWS V15.00,2015-04-21 17:22:00,
2015-04-21 10:27:00,58.5,38.3,29.41,NE,54,0.0,0.0,47,0.00,,---,0.00,VWS V15.00,2015-04-21 17:27:00,
2015-04-21 10:32:00,59.0,38.3,29.41,SSW,196,0.0,0.0,46,0.00,,---,0.00,VWS V15.00,2015-04-21 17:32:00,
2015-04-21 10:37:00,59.5,38.2,29.41,SSW,195,0.0,0.0,45,0.00,,---,0.00,VWS V15.00,2015-04-21 17:37:00,
2015-04-21 10:42:00,60.1,39.2,29.41,SSW,203,0.0,2.7,46,0.00,,---,0.00,VWS V15.00,2015-04-21 17:42:00,
2015-04-21 10:47:00,60.6,39.2,29.41,SW,216,3.6,3.6,45,0.00,,---,0.00,VWS V15.00,2015-04-21 17:47:00,
2015-04-21 10:52:00,61.0,38.3,29.41,SW,215,0.0,0.0,43,0.00,,---,0.00,VWS V15.00,2015-04-21 17:52:00,
2015-04-21 10:57:00,61.3,37.5,29.41,SSW,209,0.0,2.7,41,0.00,,---,0.00,VWS V15.00,2015-04-21 17:57:00,
2015-04-21 11:02:00,61.7,38.4,29.41,ESE,109,0.0,0.0,42,0.00,,---,0.00,VWS V15.00,2015-04-21 18:02:00,
2015-04-21 11:07:00,62.2,38.9,29.41,ESE,113,0.0,0.0,42,0.00,,---,0.00,VWS V15.00,2015-04-21 18:07:00,
2015-04-21 11:12:00,62.6,37.3,29.41,SW,216,2.7,2.7,39,0.00,,---,0.00,VWS V15.00,2015-04-21 18:12:00,
2015-04-21 11:17:00,63.1,39.1,29.41,West,268,3.1,3.1,41,0.00,,---,0.00,VWS V15.00,2015-04-21 18:17:00,
2015-04-21 11:22:00,64.4,37.6,29.41,SW,231,0.0,0.0,37,0.00,,---,0.00,VWS V15.00,2015-04-21 18:22:00,
2015-04-21 11:27:00,64.8,37.2,29.41,NW,310,2.2,2.7,36,0.00,,---,0.00,VWS V15.00,2015-04-21 18:27:00,
2015-04-21 11:32:00,65.1,36.8,29.41,WNW,301,0.0,0.0,35,0.00,,---,0.00,VWS V15.00,2015-04-21 18:32:00,
2015-04-21 11:37:00,64.8,37.2,29.41,WSW,258,2.7,2.7,36,0.00,,---,0.00,VWS V15.00,2015-04-21 18:37:00,
2015-04-21 11:42:00,64.9,38.1,29.41,SW,221,4.0,4.0,37,0.00,,---,0.00,VWS V15.00,2015-04-21 18:42:00,
2015-04-21 11:47:00,65.1,37.5,29.41,South,188,0.0,0.0,36,0.00,,---,0.00,VWS V15.00,2015-04-21 18:47:00,
2015-04-21 11:52:00,65.7,38.0,29.41,South,188,0.0,0.0,36,0.00,,---,0.00,VWS V15.00,2015-04-21 18:52:00,
2015-04-21 11:57:00,65.7,37.3,29.41,South,180,3.6,3.6,35,0.00,,---,0.00,VWS V15.00,2015-04-21 18:57:00,
2015-04-21 12:02:00,66.0,39.0,29.41,ENE,70,3.1,3.1,37,0.00,,---,0.00,VWS V15.00,2015-04-21 19:02:00,
2015-04-21 12:07:00,66.4,38.6,29.41,ENE,73,0.0,0.0,36,0.00,,---,0.00,VWS V15.00,2015-04-21 19:07:00,
2015-04-21 12:12:00,66.6,38.1,29.41,ESE,123,0.0,0.0,35,0.00,,---,0.00,VWS V15.00,2015-04-21 19:12:00,
2015-04-21 12:17:00,66.6,38.1,29.41,ESE,122,0.0,0.0,35,0.00,,---,0.00,VWS V15.00,2015-04-21 19:17:00,
2015-04-21 12:22:00,66.4,37.9,29.41,SE,139,4.0,4.0,35,0.00,,---,0.00,VWS V15.00,2015-04-21 19:22:00,
2015-04-21 12:27:00,66.7,38.2,29.41,NNW,335,4.0,4.0,35,0.00,,---,0.00,VWS V15.00,2015-04-21 19:27:00,
2015-04-21 12:32:00,66.7,38.2,29.41,WSW,251,0.0,0.0,35,0.00,,---,0.00,VWS V15.00,2015-04-21 19:32:00,
2015-04-21 12:37:00,66.9,38.4,29.41,ESE,112,3.6,3.6,35,0.00,,---,0.00,VWS V15.00,2015-04-21 19:37:00,
2015-04-21 12:42:00,66.6,38.1,29.41,SE,131,2.2,2.2,35,0.00,,---,0.00,VWS V15.00,2015-04-21 19:42:00,
2015-04-21 12:47:00,67.3,38.7,29.41,SSE,149,2.7,2.7,35,0.00,,---,0.00,VWS V15.00,2015-04-21 19:47:00,
2015-04-21 12:52:00,67.5,38.9,29.41,SSW,195,2.7,2.7,35,0.00,,---,0.00,VWS V15.00,2015-04-21 19:52:00,
2015-04-21 12:57:00,67.6,39.0,29.41,South,186,2.7,3.6,35,0.00,,---,0.00,VWS V15.00,2015-04-21 19:57:00,
2015-04-21 13:02:00,68.0,38.6,29.41,ESE,110,2.7,2.7,34,0.00,,---,0.00,VWS V15.00,2015-04-21 20:02:00,
2015-04-21 13:07:00,68.0,38.6,29.41,ENE,77,0.0,0.0,34,0.00,,---,0.00,VWS V15.00,2015-04-21 20:07:00,
2015-04-21 13:12:00,67.5,38.1,29.41,SSE,160,0.0,0.0,34,0.00,,---,0.00,VWS V15.00,2015-04-21 20:12:00,
2015-04-21 13:21:00,67.1,40.0,29.41,SSW,210,3.1,4.0,37,0.00,,---,0.00,VWS V15.00,2015-04-21 20:21:00,
2015-04-21 13:24:00,67.6,39.0,29.41,SSW,209,0.0,3.1,35,0.00,,---,0.00,VWS V15.00,2015-04-21 20:24:00,
2015-04-21 13:25:00,67.6,39.0,29.41,SSW,206,2.2,3.1,35,0.00,,---,0.00,VWS V15.00,2015-04-21 20:25:00,
2015-04-21 13:26:00,67.8,39.2,29.41,SSW,206,2.2,2.2,35,0.00,,---,0.00,VWS V15.00,2015-04-21 20:26:00,
2015-04-21 13:27:00,68.2,38.8,29.41,SSW,206,0.0,0.0,34,0.00,,---,0.00,VWS V15.00,2015-04-21 20:27:00,
2015-04-21 13:32:00,68.4,38.9,29.41,SSW,206,0.0,0.0,34,0.00,,---,0.00,VWS V15.00,2015-04-21 20:32:00,
2015-04-21 13:37:00,67.5,38.1,29.41,NNE,17,0.0,0.0,34,0.00,,---,0.00,VWS V15.00,2015-04-21 20:37:00,
2015-04-21 13:42:00,67.6,39.8,29.41,WNW,284,0.0,3.1,36,0.00,,---,0.00,VWS V15.00,2015-04-21 20:42:00,
2015-04-21 13:52:00,67.8,39.2,29.41,ESE,120,2.2,2.7,35,0.00,,---,0.00,VWS V15.00,2015-04-21 20:52:00,
2015-04-21 13:57:00,67.8,39.2,29.41,NE,51,0.0,0.0,35,0.00,,---,0.00,VWS V15.00,2015-04-21 20:57:00,
2015-04-21 14:02:00,67.5,38.1,29.41,ESE,110,0.0,2.7,34,0.00,,---,0.00,VWS V15.00,2015-04-21 21:02:00,
2015-04-21 14:07:00,66.9,37.7,29.41,SE,145,0.0,0.0,34,0.00,,---,0.00,VWS V15.00,2015-04-21 21:07:00,
2015-04-21 14:12:00,66.6,38.1,29.41,SE,145,0.0,0.0,35,0.00,,---,0.00,VWS V15.00,2015-04-21 21:12:00,
2015-04-21 14:17:00,66.2,37.8,29.41,East,91,0.0,0.0,35,0.00,,---,0.00,VWS V15.00,2015-04-21 21:17:00,
2015-04-21 14:22:00,65.5,38.5,29.41,NNE,23,0.0,0.0,37,0.00,,---,0.00,VWS V15.00,2015-04-21 21:22:00,
2015-04-21 14:27:00,65.1,38.2,29.41,SSW,199,0.0,0.0,37,0.00,,---,0.00,VWS V15.00,2015-04-21 21:27:00,
2015-04-21 14:37:00,65.1,38.9,29.41,NW,313,0.0,0.0,38,0.00,,---,0.00,VWS V15.00,2015-04-21 21:37:00,
2015-04-21 14:42:00,64.9,38.1,29.41,SSW,197,2.2,3.6,37,0.00,,---,0.00,VWS V15.00,2015-04-21 21:42:00,
2015-04-21 14:47:00,64.4,38.3,29.41,SSW,197,0.0,0.0,38,0.00,,---,0.00,VWS V15.00,2015-04-21 21:47:00,
2015-04-21 14:52:00,64.0,39.2,29.41,NNE,30,0.0,2.7,40,0.00,,---,0.00,VWS V15.00,2015-04-21 21:52:00,
2015-04-21 14:57:00,63.7,38.9,29.41,SSE,155,2.2,2.2,40,0.00,,---,0.00,VWS V15.00,2015-04-21 21:57:00,
2015-04-21 15:02:00,63.7,38.9,29.41,ESE,117,3.1,3.1,40,0.00,,---,0.00,VWS V15.00,2015-04-21 22:02:00,
2015-04-21 15:07:00,63.3,38.6,29.41,NNE,33,0.0,0.0,40,0.00,,---,0.00,VWS V15.00,2015-04-21 22:07:00,
2015-04-21 15:17:00,63.5,38.1,29.41,East,95,0.0,0.0,39,0.00,,---,0.00,VWS V15.00,2015-04-21 22:17:00,
2015-04-21 15:22:00,63.7,37.6,29.41,South,177,0.0,0.0,38,0.00,,---,0.00,VWS V15.00,2015-04-21 22:22:00,
2015-04-21 15:32:00,63.3,38.0,29.41,SSE,160,4.0,4.0,39,0.00,,---,0.00,VWS V15.00,2015-04-21 22:32:00,
2015-04-21 15:37:00,63.1,37.1,29.41,SSE,168,5.4,5.4,38,0.00,,---,0.00,VWS V15.00,2015-04-21 22:37:00,
2015-04-21 15:42:00,63.3,37.3,29.41,SSE,166,0.0,0.0,38,0.00,,---,0.00,VWS V15.00,2015-04-21 22:42:00,
2015-04-21 15:47:00,63.5,36.8,29.41,SE,126,2.2,2.2,37,0.00,,---,0.00,VWS V15.00,2015-04-21 22:47:00,
2015-04-21 15:52:00,63.7,37.0,29.41,East,95,0.0,0.0,37,0.00,,---,0.00,VWS V15.00,2015-04-21 22:52:00,
2015-04-21 15:57:00,64.0,35.9,29.41,NE,38,4.0,4.0,35,0.00,,---,0.00,VWS V15.00,2015-04-21 22:57:00,
2015-04-21 16:02:00,64.0,35.9,29.41,NW,326,4.9,4.9,35,0.00,,---,0.00,VWS V15.00,2015-04-21 23:02:00,
2015-04-21 16:07:00,64.2,36.7,29.41,West,266,0.0,0.0,36,0.00,,---,0.00,VWS V15.00,2015-04-21 23:07:00,
2015-04-21 16:12:00,64.2,36.0,29.41,South,190,2.2,5.4,35,0.00,,---,0.00,VWS V15.00,2015-04-21 23:12:00,
2015-04-21 16:17:00,64.2,35.3,29.41,SE,138,2.2,3.6,34,0.00,,---,0.00,VWS V15.00,2015-04-21 23:17:00,
2015-04-21 16:22:00,63.9,35.7,29.41,SE,127,2.7,2.7,35,0.00,,---,0.00,VWS V15.00,2015-04-21 23:22:00,
2015-04-21 16:27:00,63.7,34.8,29.41,WNW,288,3.1,3.1,34,0.00,,---,0.00,VWS V15.00,2015-04-21 23:27:00,
2015-04-21 16:32:00,63.5,34.7,29.41,ESE,110,2.2,2.2,34,0.00,,---,0.00,VWS V15.00,2015-04-21 23:32:00,
2015-04-21 16:37:00,63.1,34.3,29.41,North,6,2.7,3.1,34,0.00,,---,0.00,VWS V15.00,2015-04-21 23:37:00,
2015-04-21 16:42:00,62.6,33.9,29.44,SE,141,0.0,0.0,34,0.00,,---,0.00,VWS V15.00,2015-04-21 23:42:00,
2015-04-21 16:47:00,62.2,33.5,29.44,SSE,163,0.0,3.6,34,0.00,,---,0.00,VWS V15.00,2015-04-21 23:47:00,
2015-04-21 16:52:00,62.1,33.4,29.44,SSE,160,0.0,3.6,34,0.00,,---,0.00,VWS V15.00,2015-04-21 23:52:00,
2015-04-21 16:57:00,61.5,32.9,29.44,SE,143,0.0,0.0,34,0.00,,---,0.00,VWS V15.00,2015-04-21 23:57:00,
2015-04-21 17:02:00,60.8,32.3,29.44,SSE,157,3.6,4.9,34,0.00,,---,0.00,VWS V15.00,2015-04-22 00:02:00,
2015-04-21 17:07:00,60.1,31.6,29.44,East,101,0.0,3.6,34,0.00,,---,0.00,VWS V15.00,2015-04-22 00:07:00,
2015-04-21 17:12:00,59.2,31.6,29.44,East,96,3.6,3.6,35,0.00,,---,0.00,VWS V15.00,2015-04-22 00:12:00,
2015-04-21 17:17:00,58.8,31.2,29.44,East,98,4.0,4.0,35,0.00,,---,0.00,VWS V15.00,2015-04-22 00:17:00,
2015-04-21 17:22:00,58.6,31.8,29.44,East,92,0.0,3.6,36,0.00,,---,0.00,VWS V15.00,2015-04-22 00:22:00,
2015-04-21 17:27:00,58.3,31.5,29.44,WNW,288,3.1,3.1,36,0.00,,---,0.00,VWS V15.00,2015-04-22 00:27:00,
2015-04-21 17:32:00,58.1,32.0,29.44,WNW,288,0.0,0.0,37,0.00,,---,0.00,VWS V15.00,2015-04-22 00:32:00,
2015-04-21 17:37:00,57.9,31.1,29.44,WNW,288,0.0,2.2,36,0.00,,---,0.00,VWS V15.00,2015-04-22 00:37:00,
2015-04-21 17:42:00,57.7,31.7,29.44,ENE,61,0.0,0.0,37,0.00,,---,0.00,VWS V15.00,2015-04-22 00:42:00,
2015-04-21 17:47:00,57.6,31.5,29.44,ESE,117,4.9,4.9,37,0.00,,---,0.00,VWS V15.00,2015-04-22 00:47:00,
2015-04-21 17:52:00,57.2,30.5,29.44,SSE,150,0.0,0.0,36,0.00,,---,0.00,VWS V15.00,2015-04-22 00:52:00,
2015-04-21 17:57:00,56.8,30.9,29.44,SSE,164,0.0,2.2,37,0.00,,---,0.00,VWS V15.00,2015-04-22 00:57:00,
2015-04-21 18:02:00,56.5,30.5,29.44,SSE,164,0.0,0.0,37,0.00,,---,0.00,VWS V15.00,2015-04-22 01:02:00,
2015-04-21 18:07:00,56.3,30.4,29.44,SSE,165,2.7,3.1,37,0.00,,---,0.00,VWS V15.00,2015-04-22 01:07:00,
2015-04-21 18:12:00,55.9,30.7,29.47,SSE,165,0.0,0.0,38,0.00,,---,0.00,VWS V15.00,2015-04-22 01:12:00,
2015-04-21 18:17:00,55.9,32.6,29.47,SSE,165,0.0,0.0,41,0.00,,---,0.00,VWS V15.00,2015-04-22 01:17:00,
2015-04-21 18:22:00,55.2,34.3,29.47,South,170,0.0,3.6,45,0.00,,---,0.00,VWS V15.00,2015-04-22 01:22:00,
2015-04-21 18:27:00,54.5,34.7,29.47,South,183,0.0,3.1,47,0.00,,---,0.00,VWS V15.00,2015-04-22 01:27:00,
2015-04-21 18:32:00,54.0,34.7,29.47,ENE,60,0.0,3.1,48,0.00,,---,0.00,VWS V15.00,2015-04-22 01:32:00,
2015-04-21 18:37:00,53.4,35.3,29.47,ENE,60,0.0,0.0,50,0.00,,---,0.00,VWS V15.00,2015-04-22 01:37:00,
2015-04-21 18:42:00,53.1,35.9,29.47,NE,39,2.2,4.0,52,0.00,,---,0.00,VWS V15.00,2015-04-22 01:42:00,
2015-04-21 18:47:00,52.9,36.2,29.47,NE,39,2.7,2.7,53,0.00,,---,0.00,VWS V15.00,2015-04-22 01:47:00,
2015-04-21 18:51:00,52.5,36.4,29.47,NNE,22,0.0,2.2,54,0.00,,---,0.00,VWS V15.00,2015-04-22 01:51:00,
2015-04-21 18:56:00,51.8,36.6,29.47,NW,313,3.1,3.1,56,0.00,,---,0.00,VWS V15.00,2015-04-22 01:56:00,
2015-04-21 19:01:00,51.4,37.6,29.47,NW,313,0.0,0.0,59,0.00,,---,0.00,VWS V15.00,2015-04-22 02:01:00,
2015-04-21 19:06:00,51.3,37.4,29.47,NW,313,0.0,0.0,59,0.00,,---,0.00,VWS V15.00,2015-04-22 02:06:00,